Location: *
(37.4917°N, 71.5558°E)
Time: 00:37:44
(UTC+00:00)

Cosmos 2074 Rocket - Pass Details

Date: 09 April 2020
Orbit: 967 x 986 km, 82.9° (Epoch: 05 June)

Event Time Altitude Azimuth Distance (km) Brightness Sun altitude
Rises 14:30:00 0° 354° (N) 3,697 7.4 -9.7°
Reaches altitude 10° 14:32:32 10° 356° (N) 2,747 6.7 -10.2°
Maximum altitude 14:38:51 78° 83° (E) 1,011 4.0 -11.3°
Drops below altitude 10° 14:45:07 10° 170° (S) 2,734 6.1 -12.5°
Sets 14:47:38 0° 171° (S) 3,678 6.7 -13.0°
